www.pogodaiklimat.ru

Погода и климат >> Архив погоды >> Япония >> Хаги


ПОГОДА в Хаги

  • Прогноз погоды в Хаги
  • Монитор погоды в Хаги

АРХИВ ПОГОДЫ в Хаги

Время (UTC), дата Ветер
(напр.,м/с)
 
Видим.   Явления Облачность Т
(С)
Тd
(С)
f
(%)
Тe
(С)
Тes
(С)
Комфортность P
(гПа)
Po
(гПа)
Тmin
(С)
Tmax
(С)
R
(мм)
R24
(мм)
S
(см)
22 10.06 С 2 20 км н/о +19.2 +16.1 82 +21 +21 комфорт 1007.4 1007.0
23 10.06 С 4 20 км в посл. час дождь н/о +19.5 +15.8 79 +21 +21 комфорт 1007.8 1007.4
00 11.06 С 4 20 км {дождь} н/о +20.4 +15.6 74 +23 +23 комфорт 1008.0 1007.6 +15.9 0.0
01 11.06 С 4 20 км н/о +21.3 +15.6 70 +25 +25 комфорт 1007.9 1007.5
02 11.06 С 4 20 км н/о +22.4 +17.1 72 +27 +27 душно 1007.9 1007.5
03 11.06 С 5 20 км н/о +21.2 +15.5 70 +24 +24 комфорт 1008.0 1007.6
04 11.06 С 5 20 км н/о +21.6 +16.1 71 +25 +25 комфорт 1007.8 1007.4
05 11.06 С 4 20 км н/о +22.2 +15.3 65 +26 +26 душно 1007.7 1007.3
06 11.06 С 4 20 км н/о +21.4 +15.3 68 +25 +25 комфорт 1007.4 1007.0
07 11.06 С 4 20 км н/о +20.9 +15.7 72 +24 +24 комфорт 1007.4 1007.0
08 11.06 С 5 20 км слаб. дождь н/о +19.8 +15.9 78 +22 +22 комфорт 1007.5 1007.1
09 11.06 С 2 20 км слаб. дождь н/о +18.7 +16.7 88 +20 +20 1007.6 1007.2
10 11.06 С 3 20 км в посл. час дождь н/о +18.7 +16.0 84 +20 +20 1007.8 1007.4
11 11.06 С 2 20 км н/о +18.7 +15.8 83 +20 +20 1008.1 1007.7
12 11.06 В 1 20 км {дождь} н/о +18.4 +15.8 85 +20 +20 1008.6 1008.2 +22.8 0.5
13 11.06 СВ 1 20 км н/о +18.2 +15.7 85 +20 +20 1008.8 1008.4
14 11.06 В 1 20 км н/о +18.1 +16.1 88 +19 +19 1008.8 1008.4
15 11.06 Ю 1 20 км н/о +17.6 +16.0 90 +19 +19 1008.9 1008.5
16 11.06 Ю 1 20 км в посл. час дождь н/о +17.4 +16.4 94 +18 +18 1008.8 1008.4
17 11.06 Ю 1 16 км слаб. дождь н/о +17.3 +16.5 95 +18 +18 1008.8 1008.4
18 11.06 ЮЗ 1 20 км в посл. час дождь н/о +17.6 +17.3 98 +19 +19 1008.5 1008.1 0.5
19 11.06 С 3 12 км слаб. дождь н/о +18.3 +17.2 93 +19 +19 1008.8 1008.4
20 11.06 С 3 20 км слаб. дождь н/о +18.3 +17.5 95 +19 +19 1009.2 1008.8
21 11.06 СЗ 2 6000 м слаб. дождь н/о +18.3 +17.5 95 +19 +19 1009.3 1008.9
22 11.06 С 2 18 км слаб. дождь н/о +18.9 +17.2 90 +21 +21 комфорт 1009.6 1009.2
23 11.06 СВ 3 20 км в посл. час дождь н/о +19.8 +16.5 81 +23 +23 комфорт 1009.5 1009.1
00 12.06 СВ 3 20 км {дождь} н/о +20.8 +16.4 76 +25 +25 комфорт 1009.9 1009.5 +17.2 2
01 12.06 СВ 3 20 км н/о +22.3 +16.6 70 +27 +27 душно 1010.1 1009.7
02 12.06 С 5 20 км н/о +21.5 +16.7 74 +25 +25 комфорт 1010.7 1010.3
03 12.06 С 5 20 км н/о +20.9 +15.9 73 +24 +24 комфорт 1010.7 1010.3
04 12.06 С 5 20 км н/о +21.7 +15.8 69 +25 +25 комфорт 1010.6 1010.2
05 12.06 С 5 20 км н/о +22.1 +16.6 71 +26 +26 душно 1009.9 1009.5
06 12.06 С 5 20 км н/о +21.9 +16.4 71 +26 +26 душно 1009.9 1009.5
07 12.06 С 4 20 км н/о +21.7 +15.8 69 +25 +25 комфорт 1009.8 1009.4
08 12.06 С 5 20 км н/о +21.2 +16.0 72 +25 +25 комфорт 1009.4 1009.0
09 12.06 С 4 20 км н/о +20.6 +16.0 75 +24 +24 комфорт 1009.7 1009.3
10 12.06 С 3 20 км н/о +19.7 +15.4 76 +22 +22 комфорт 1010.2 1009.8
11 12.06 СВ 2 20 км н/о +19.1 +15.2 78 +21 +21 комфорт 1010.9 1010.5
12 12.06 В 2 20 км н/о +17.6 +15.1 85 +18 +18 1011.5 1011.1 +23.7
13 12.06 Ю 2 20 км н/о +16.5 +15.2 92 +17 +17 1011.6 1011.2
14 12.06 Ю 2 19 км н/о +16.0 +15.0 94 +16 +16 1011.5 1011.1
15 12.06 Ю 2 16 км н/о +15.5 +14.7 95 +16 +16 1011.1 1010.7
16 12.06 ЮВ 1 15 км н/о +15.1 +14.5 96 +16 +16 1010.9 1010.5
17 12.06 Ю 2 15 км н/о +14.9 +14.4 97 +14 +14 1010.7 1010.3
18 12.06 Ю 2 13 км н/о +14.6 +14.1 97 +14 +14 1010.6 1010.2
19 12.06 Ю 3 13 км н/о +14.5 +14.0 97 +13 +13 1010.8 1010.4
20 12.06 Ю 3 12 км н/о +14.2 +13.9 98 +13 +13 1011.1 1010.7
21 12.06 Ю 3 16 км н/о +14.6 +14.1 97 +14 +14 1011.4 1011.0
22 12.06 Ю 2 20 км н/о +16.3 +14.5 89 +16 +16 1011.8 1011.4
23 12.06 ЮВ 1 20 км н/о +19.4 +15.5 78 +22 +22 комфорт 1012.1 1011.7
00 13.06 С 2 20 км н/о +21.3 +15.4 69 +24 +24 комфорт 1011.9 1011.5 +14.2
01 13.06 СЗ 3 20 км н/о +22.7 +16.5 68 +27 +27 душно 1011.5 1011.1
02 13.06 СЗ 3 20 км н/о +23.0 +17.0 69 +28 +28 душно 1011.1 1010.7
03 13.06 СЗ 3 20 км в посл. час дождь н/о +23.4 +16.0 63 +28 +28 душно 1010.9 1010.5
04 13.06 СЗ 3 н/о н/о +23.4 +15.7 62 +28 +28 душно 1010.1 1009.7
05 13.06 СЗ 4 20 км н/о +24.0 +16.5 63 +27 +27 жарко 1010.0 1009.6
07 13.06 СЗ 3 20 км н/о +24.0 +17.7 68 +28 +28 душно 1009.5 1009.1
08 13.06 СЗ 3 20 км н/о +23.2 +17.4 70 +29 +29 душно 1009.2 1008.8
09 13.06 С 2 20 км н/о +22.7 +17.2 71 +28 +28 душно 1009.0 1008.6
10 13.06 С 2 20 км н/о +22.2 +17.4 74 +27 +27 душно 1009.5 1009.1
11 13.06 Ю 1 20 км н/о +20.5 +17.7 84 +25 +25 комфорт 1010.2 1009.8
12 13.06 ЮВ 2 20 км н/о +19.7 +17.7 88 +23 +23 комфорт 1010.5 1010.1 +24.8
13 13.06 Ю 3 20 км н/о +19.6 +17.0 85 +22 +22 комфорт 1010.5 1010.1
14 13.06 ЮВ 3 20 км н/о +20.5 +16.7 79 +24 +24 комфорт 1010.2 1009.8
15 13.06 ЮВ 4 20 км н/о +21.2 +17.0 77 +25 +25 комфорт 1009.7 1009.3
16 13.06 Ю 4 20 км н/о +21.0 +16.8 77 +25 +25 комфорт 1009.1 1008.7
17 13.06 Ю 4 20 км н/о +20.8 +16.4 76 +24 +24 комфорт 1008.5 1008.1
18 13.06 Ю 3 20 км н/о +20.6 +16.0 75 +24 +24 комфорт 1008.1 1007.7
19 13.06 Ю 4 20 км н/о +20.8 +16.0 74 +24 +24 комфорт 1007.9 1007.5
20 13.06 Ю 3 20 км н/о +20.2 +15.9 76 +23 +23 комфорт 1007.5 1007.1
21 13.06 Ю 3 20 км н/о +20.7 +15.5 72 +24 +24 комфорт 1007.3 1006.9
22 13.06 Ю 3 20 км н/о +22.0 +16.1 69 +26 +26 душно 1007.4 1007.0
23 13.06 Ю 3 20 км н/о +23.0 +16.6 67 +28 +28 душно 1006.6 1006.2
00 14.06 Ю 2 20 км н/о +23.8 +16.8 65 +27 +27 жарко 1006.1 1005.7 +19.4
02 14.06 Ю 3 20 км н/о +25.8 +17.2 59 +30 +30 душно 1006.3 1005.9
03 14.06 ЮВ 3 20 км н/о +26.6 +16.0 52 +30 +30 душно 1005.4 1005.0
04 14.06 Ю 3 20 км н/о +26.3 +16.0 53 +30 +30 душно 1004.6 1004.2
05 14.06 ЮВ 2 20 км в посл. час дождь н/о +25.2 +16.6 59 +29 +29 душно 1004.0 1003.6
06 14.06 В 5 9000 м слаб. дождь н/о +23.1 +17.8 72 +29 +29 очень
душно
1003.9 1003.5 0.0
07 14.06 ЮЗ 1 4600 м слаб. дождь н/о +20.5 +19.3 93 +26 +26 душно 1003.9 1003.5
08 14.06 СЗ 2 3200 м слаб. дождь н/о +19.8 +19.7 99 +24 +24 комфорт 1003.6 1003.2
09 14.06 С 2 4700 м дождь н/о +19.4 +19.4 100 +23 +23 комфорт 1003.1 1002.7
10 14.06 С 2 4800 м слаб. дождь н/о +19.0 +19.0 100 +22 +22 комфорт 1002.7 1002.3
11 14.06 СЗ 1 6000 м слаб. дождь н/о +18.9 +18.9 100 +22 +22 комфорт 1002.4 1002.0
12 14.06 ЮВ 1 14 км в посл. час дождь н/о +19.0 +19.0 100 +22 +22 комфорт 1001.9 1001.5 +26.9 11
13 14.06 З 1 8000 м слаб. дождь н/о +19.2 +19.0 99 +23 +23 комфорт 1001.8 1001.4
14 14.06 З 1 6000 м слаб. дождь н/о +19.2 +19.2 100 +23 +23 комфорт 1001.2 1000.8
15 14.06 Ю 1 11 км в посл. час дождь н/о +19.0 +19.0 100 +22 +22 комфорт 1000.0 999.6
16 14.06 штиль 0 10 км в посл. час дождь н/о +19.1 +19.1 100 +21 +21 комфорт 998.4 998.0
17 14.06 Ю 1 9000 м слаб. дождь н/о +19.0 +19.0 100 +22 +22 комфорт 997.6 997.2
18 14.06 Ю 1 4500 м слаб. дождь н/о +18.9 +18.9 100 +22 +22 комфорт 996.8 996.4 3
19 14.06 С 2 6000 м слаб. дождь н/о +19.2 +19.0 99 +22 +22 комфорт 996.6 996.2
20 14.06 С 2 3700 м слаб. дождь н/о +18.9 +18.7 99 +21 +21 комфорт 996.7 996.3
21 14.06 С 2 8000 м слаб. дождь н/о +18.7 +18.2 97 +20 +20 996.7 996.3
22 14.06 С 2 8000 м слаб. дождь н/о +18.7 +18.4 98 +21 +21 комфорт 996.6 996.2
23 14.06 ЮЗ 1 4500 м дождь н/о +18.5 +18.3 99 +21 +21 комфорт 996.1 995.7
00 15.06 С 2 11 км дождь н/о +19.0 +19.0 100 +22 +22 комфорт 995.5 995.1 +18.5 16
01 15.06 С 3 3500 м слаб. дождь н/о +19.0 +18.8 99 +21 +21 комфорт 995.2 994.8
02 15.06 С 2 6000 м слаб. дождь н/о +19.1 +18.8 98 +22 +22 комфорт 995.1 994.7
03 15.06 С 3 10 км дождь н/о +19.2 +18.7 97 +22 +22 комфорт 994.9 994.5
04 15.06 С 4 7000 м дождь н/о +19.1 +18.8 98 +21 +21 комфорт 995.0 994.6
05 15.06 С 5 7000 м дождь н/о +19.3 +18.8 97 +21 +21 комфорт 995.2 994.8
06 15.06 С 6 7000 м дождь н/о +19.1 +18.5 96 +21 +21 комфорт 995.3 994.9 19
07 15.06 С 5 14 км слаб. дождь н/о +19.4 +18.1 92 +21 +21 комфорт 995.4 995.0
08 15.06 СЗ 5 20 км в посл. час дождь н/о +19.8 +17.6 87 +22 +22 комфорт 995.8 995.4
09 15.06 СЗ 5 6000 м слаб. дождь н/о +19.5 +18.2 92 +22 +22 комфорт 995.8 995.4
10 15.06 С 4 20 км в посл. час дождь н/о +19.6 +18.4 93 +22 +22 комфорт 997.0 996.6
11 15.06 С 3 20 км в посл. час дождь н/о +19.7 +17.8 89 +23 +23 комфорт 997.6 997.2
12 15.06 СЗ 3 20 км {дождь} н/о +19.6 +17.9 90 +22 +22 комфорт 998.7 998.3 +19.8 20
13 15.06 СЗ 4 20 км в посл. час дождь н/о +19.7 +17.7 88 +22 +22 комфорт 999.4 999.0
14 15.06 СЗ 2 20 км в посл. час дождь н/о +19.6 +17.7 89 +23 +23 комфорт 1000.1 999.7
15 15.06 СЗ 3 18 км слаб. дождь н/о +19.5 +18.2 92 +22 +22 комфорт 1000.3 999.9
16 15.06 СЗ 3 11 км слаб. дождь н/о +19.1 +18.0 93 +21 +21 комфорт 1000.9 1000.5
17 15.06 Ю 1 12 км в посл. час дождь н/о +17.7 +17.7 100 +19 +19 1000.7 1000.3
18 15.06 Ю 1 11 км в посл. час дождь н/о +17.6 +17.6 100 +19 +19 1000.7 1000.3 10
19 15.06 ЮВ 1 9000 м дымка н/о +17.5 +17.5 100 +19 +19 1001.6 1001.2
20 15.06 ЮЗ 1 10 км н/о +17.5 +17.5 100 +19 +19 1002.5 1002.1
21 15.06 СЗ 1 20 км в посл. час дождь н/о +18.4 +18.2 99 +21 +21 комфорт 1003.0 1002.6
22 15.06 СЗ 3 20 км в посл. час дождь н/о +19.6 +18.1 91 +22 +22 комфорт 1003.7 1003.3
23 15.06 СЗ 3 20 км н/о +20.2 +17.6 85 +24 +24 комфорт 1004.6 1004.2
00 16.06 СЗ 4 20 км в посл. час дождь н/о +20.9 +17.5 81 +25 +25 комфорт 1005.1 1004.7 +17.4 10
01 16.06 С 4 20 км в посл. час дождь н/о +20.9 +17.9 83 +25 +25 комфорт 1005.8 1005.4
02 16.06 СЗ 4 20 км н/о +21.3 +17.5 79 +25 +25 комфорт 1006.6 1006.2
03 16.06 СЗ 4 20 км {дождь} н/о +22.2 +16.9 72 +27 +27 душно 1007.0 1006.6
04 16.06 С 4 20 км н/о +22.2 +16.9 72 +27 +27 душно 1007.4 1007.0
05 16.06 С 4 20 км н/о +20.8 +16.2 75 +24 +24 комфорт 1008.0 1007.6
06 16.06 С 4 20 км в посл. час дождь н/о +21.8 +16.1 70 +26 +26 душно 1008.7 1008.3 0.0
07 16.06 С 4 20 км в посл. час дождь н/о +21.1 +15.4 70 +24 +24 комфорт 1008.9 1008.5
08 16.06 С 3 20 км н/о +20.4 +15.2 72 +24 +24 комфорт 1009.0 1008.6
09 16.06 С 3 20 км {дождь} н/о +20.0 +15.7 76 +23 +23 комфорт 1009.2 1008.8
10 16.06 С 2 20 км н/о +19.7 +15.8 78 +22 +22 комфорт 1010.1 1009.7
11 16.06 В 1 20 км н/о +18.9 +16.7 87 +21 +21 комфорт 1010.4 1010.0
12 16.06 В 1 20 км {дождь} н/о +17.6 +16.1 91 +19 +19 1011.3 1010.9 +22.8 0.0
13 16.06 В 2 20 км н/о +16.9 +16.1 95 +17 +17 1012.0 1011.6
14 16.06 Ю 2 20 км н/о +16.6 +16.0 96 +17 +17 1012.1 1011.7
15 16.06 Ю 2 20 км н/о +16.2 +15.9 98 +16 +16 1012.2 1011.8
16 16.06 Ю 2 20 км н/о +15.9 +15.6 98 +16 +16 1012.2 1011.8
17 16.06 Ю 3 20 км н/о +15.7 +15.4 98 +15 +15 1012.1 1011.7
18 16.06 Ю 3 20 км н/о +15.5 +15.2 98 +15 +15 1012.3 1011.9
19 16.06 Ю 3 20 км н/о +15.4 +15.1 98 +15 +15 1012.5 1012.1
20 16.06 Ю 2 20 км н/о +15.2 +14.9 98 +15 +15 1012.8 1012.4
21 16.06 Ю 3 20 км н/о +15.5 +15.2 98 +15 +15 1012.8 1012.4
22 16.06 Ю 3 20 км н/о +16.8 +15.3 91 +17 +17 1013.2 1012.8
23 16.06 ЮВ 2 20 км в посл. час дождь н/о +19.3 +16.0 81 +22 +22 комфорт 1014.1 1013.7
00 17.06 С 1 20 км {дождь} н/о +21.5 +16.9 75 +25 +25 комфорт 1013.8 1013.4 +15.2 0.0
01 17.06 СВ 1 20 км н/о +23.2 +16.5 66 +28 +28 душно 1013.4 1013.0
02 17.06 СЗ 3 20 км н/о +22.9 +16.2 66 +27 +27 душно 1013.4 1013.0
03 17.06 СЗ 3 20 км н/о +22.8 +15.7 64 +27 +27 душно 1013.4 1013.0
04 17.06 С 3 20 км н/о +24.4 +15.1 56 +27 +27 жарко 1013.0 1012.6
05 17.06 С 3 20 км н/о +24.2 +15.2 57 +27 +27 жарко 1012.6 1012.2
06 17.06 СЗ 3 20 км н/о +23.2 +16.5 66 +28 +28 душно 1012.5 1012.1
07 17.06 С 3 20 км н/о +23.1 +16.7 67 +28 +28 душно 1012.3 1011.9
08 17.06 С 3 20 км н/о +22.5 +17.0 71 +27 +27 душно 1012.4 1012.0
09 17.06 СЗ 2 20 км н/о +22.3 +17.0 72 +27 +27 душно 1012.2 1011.8
10 17.06 С 1 20 км н/о +22.1 +17.0 73 +27 +27 душно 1012.4 1012.0
11 17.06 Ю 2 20 км н/о +20.5 +17.5 83 +25 +25 комфорт 1012.8 1012.4
12 17.06 Ю 2 20 км н/о +19.4 +17.7 90 +22 +22 комфорт 1013.3 1012.9 +25.3
13 17.06 Ю 2 20 км н/о +18.7 +17.4 92 +20 +20 1013.8 1013.4
14 17.06 Ю 3 15 км н/о +18.4 +17.3 93 +19 +19 1013.7 1013.3
15 17.06 Ю 3 19 км н/о +18.0 +17.0 94 +18 +18 1013.5 1013.1
16 17.06 Ю 2 20 км н/о +17.9 +16.6 92 +18 +18 1013.1 1012.7
18 17.06 Ю 4 20 км н/о +17.4 +16.1 92 +17 +17 1012.5 1012.1
19 17.06 Ю 4 20 км н/о +16.9 +15.8 93 +16 +16 1012.6 1012.2
20 17.06 Ю 4 20 км н/о +17.0 +15.5 91 +17 +17 1012.7 1012.3

 

Местоположение метеостанции Хаги (Япония): широта 34.42 долгота 131.40 высота над уровнем моря 7 м.

В архиве по умолчанию представлена погода в Хаги за последнюю неделю. Архивные данные за месяц целиком и за предыдущие месяцы, начиная с января 2011 года, Вы можете получить, выбрав интересующий диапазон дат из раскрывающегося списка и нажав кнопку "Ввод!".


*Определитесь, кто Вы:
робот инопланетянин человек

Внимание! Время в таблицах - всемирное. Для получения местного времени необходимо прибавить поправку, которая равна 9 ч.

Смотрите также архив погоды в соседних городах и на ближайших метеорологических станциях:

Погода в Ямагути (Япония) (28 км)
Погода в Симоносеки (Япония) (68 км)
Погода в Хамаде (Япония) (81 км)
Погода в Хиросиме (Япония) (97 км)
Погода в Куре (Япония) (108 км)
Погода в Иидзуке (Япония) (108 км)
Погода в Хите (Япония) (130 км)
Погода в Фукуоке (Япония) (133 км)
Погода в Оите (Япония) (134 км)
Погода в Мацуяме (Япония) (142 км)

Пояснения к столбцам:

Ветер - указаны скорость ветра в м/с - средняя за 10 мин, порывы в срок и между сроками (в фигурных скобках) и направление, откуда дует ветер: С - северный, СВ - северо-восточный, В - восточный, ЮВ - юго-восточный, Ю - южный, ЮЗ - юго-западный, З - западный, СЗ - северо-западный.
Видимость - горизонтальная дальность видимости в метрах или километрах. При видимости от 1 до 10 км при отсутствии осадков обычно наблюдается дымка, при ухудшении видимости до 1 км и менее - туман. В сухую погоду видимость может ухудшаться дымом, пылью или мглою.
Явления - указаны атмосферные явления, наблюдавшиеся в срок или в последний час перед сроком; фигурными скобками обозначены явления, наблюдавшиеся между сроками (за 1-3 часа до срока); квадратными скобками обозначены град или гололедные отложения с указанием их диаметра в мм.
Облачность - указаны через наклонную черту общая и нижняя облачность в баллах и высота нижней границы облаков в метрах; квадратными скобками обозначены формы облаков: Ci - перистые, Cs - перисто-слоистые, Cc - перисто-кучевые, Ac - высококучевые, As - высокослоистые, Sc - слоисто-кучевые, Ns - слоисто-дождевые, Cu - кучевые, Cb - кучево-дождевые. Подробнее классификацию облаков см. в Атласе облаков (PDF).
T - Температура воздуха - температура, измеренная на высоте 2 м над землей.
Td - Температура точки росы - температура, при понижении до которой содержащийся в воздухе водяной пар достигнет насыщения.
f - Относительная влажность воздуха - влажноcть воздуха, измеренная на высоте 2 м над землей.
Te - Эффективная температура - температура, которую ощущает одетый по сезону человек в тени. Характеристика душности погоды. При расчете учитывается влияние влажности воздуха и скорости ветра на теплоощущения человека.
Tes - Эффективная температура на солнце - температура, которую ощущает человек, с поправкой на солнечный нагрев. Характеристика знойности погоды. Зависит от высоты солнца над горизонтом, облачности и скорости ветра. Ночью, в пасмурную погоду, а также при ветре 12 м/с и более поправка равна нулю.
P - Атмосферное давление - приведенное к уровню моря атмосферное давление.
Po - Атмосферное давление - измеренное на уровне метеостанции атмосферное давление.
Tmin - Минимальная температура - минимум температуры воздуха на высоте 2 м над землей.
Tmax - Максимальная температура - максимум температуры воздуха на высоте 2 м над землей.
R - Количество осадков - Количество выпавших осадков за период времени, мм. При наведении курсора мыши на число - период времени, за который выпало указанное количество осадков.
R24 - Количество осадков - Количество выпавших осадков за 24 часа, мм.
S - Снежный покров - Высота снежного покрова, см. При наведении курсора мыши на число - состояние снежного покрова и степень покрытия местности в баллах.